Torna al catalogo

STARLINK-30481

AttivoComunicazioniVLEO
NORAD 57899·PAYLOAD·🇺🇸 United States

Lanciato Sep 20, 2023 da Cape Canaveral Space Force Station

Loading…

Prossimi Passaggi (prossime 24 ore)

TLE

AggiornatoSource: CelesTrak SupGP

Epoca: Sep 14, 2026, 20:50 UTC

1 57899C 23146J   26257.86854167 -.00076318  00000+0 -27635-2 0  2579
2 57899  43.0034 325.9303 0001912 269.5392 227.6290 15.27624526    17

Traccia STARLINK-30481 in tempo reale con AllMySat

Download on the App Store